Regional Weather Roundup
Issued by NWS

Home | Current Version | Previous Version | Text Only | Print | Product List | Glossary On
Versions: 1 2 3 4 5 6 7 8 9 10 11 12 13 14 15 16 17 18 19 20 21 22 23 24 25 26 27 28 29 30 31 32 33 34 35 36 37 38 39 40 41 42 43 44 45 46 47 48 49 50
000
ASUS43 KFSD 251610
RWRSD

WEATHER ROUNDUP FOR SOUTH DAKOTA
NATIONAL WEATHER SERVICE SIOUX FALLS SD
1100 AM CDT MON JUL 25 2016

NOTE: "FAIR" INDICATES FEW OR NO CLOUDS BELOW 12,000 FEET WITH NO
SIGNIFICANT WEATHER AND/OR OBSTRUCTIONS TO VISIBILITY.


SDZ001>005-009-010-012>017-251700-
NORTHWEST AND NORTH CENTRAL SOUTH DAKOTA

CITY           SKY/WX    TMP DP  RH WIND       PRES   REMARKS
BUFFALO          N/A     86  52  30 S6        29.97F
FAITH            N/A     84  54  35 S21       30.03F
MOBRIDGE       SUNNY     85  61  44 S12       30.01F
$$

SDZ012>016-024>037-041>051-057-063-072>074-251700-
SOUTHWEST AND SOUTH CENTRAL SOUTH DAKOTA

CITY           SKY/WX    TMP DP  RH WIND       PRES   REMARKS
RAPID CTY ARPT SUNNY     82  57  42 S15G23    30.08F
PIERRE         SUNNY     87  58  37 S18       30.04F
CUSTER         SUNNY     76  53  44 SE8       30.23S
ELLSWORTH AFB  SUNNY     82  58  44 S16       30.06F
PHILIP         SUNNY     87  58  37 S14       30.05F
PINE RIDGE     SUNNY     81  57  43 S17G23    30.13F
WINNER         FAIR      86  45  23 S20G25    30.12F
$$

SDZ004>011-016>023-039-040-251700-
NORTHEAST SOUTH DAKOTA

CITY           SKY/WX    TMP DP  RH WIND       PRES   REMARKS
ABERDEEN       SUNNY     81  63  54 S10       30.06F
WATERTOWN      SUNNY     81  62  52 SW12      30.11S
BROOKINGS      SUNNY     80  65  59 SW6       30.13S
SISSETON         N/A     83  61  47 VRB5      30.05F
$$

SDZ017-020-022-023-036>040-048>070-251700-
SOUTHEAST SOUTH DAKOTA

CITY           SKY/WX    TMP DP  RH WIND       PRES   REMARKS
SIOUX FALLS    MOSUNNY   79  62  56 SW5       30.13S
HURON          SUNNY     83  61  47 S14       30.09S
CHAMBERLAIN    SUNNY     83  60  44 S12       30.10F
MITCHELL       SUNNY     83  61  47 S8        30.12S
YANKTON        SUNNY     81  61  50 S7        30.12F
$$

ABBREVIATIONS USED IN REMARKS
   TC - TEMPERATURE IN CELSIUS
  WCI - WIND CHILL INDEX
   HX - HEAT INDEX
  VSB - VISIBILITY





USA.gov is the U.S. government's official web portal to all federal, state and local government web resources and services.